When you browse on this site, cookies collect data to enhance your experience and personalize the content and advertising you see.
Visit our Privacy Policy to learn more. By continuing to use the site, you agree to this use of cookies and data.
  • En España
  • Lista de países
  • Para 7 días
  • Temperatura del agua
  • El tiempo en el mapa
  • Informadores
  • user-avatar
    Iniciar sesión

    Tiempo cada hora Soelden

    Hoy, 10 Abril, Viernes

    Tiempo Temperatura Precipitaciones Viento Presión Humedad
    00:00 +1°C° 0 mm 1 mps 585 mmHg 78%
    01:00 +1°C° 0 mm 1 mps 585 mmHg 78%
    02:00 0°C° 0 mm 1 mps 585 mmHg 78%
    03:00 0°C° 0 mm 1 mps 584 mmHg 78%
    04:00 0°C° 0 mm 1 mps 584 mmHg 79%
    05:00 0°C° 0 mm 1 mps 585 mmHg 76%
    06:00 +1°C° 0 mm 1 mps 585 mmHg 74%
    07:00 +2°C° 0 mm 1 mps 586 mmHg 72%
    08:00 +4°C° 0 mm 1 mps 587 mmHg 66%
    09:00 +6°C° 0 mm 1 mps 588 mmHg 60%
    10:00 +8°C° 0 mm 1 mps 588 mmHg 54%
    11:00 +9°C° 0 mm 1 mps 589 mmHg 51%
    12:00 +9°C° 0 mm 1 mps 589 mmHg 47%
    13:00 +10°C° 0 mm 1 mps 589 mmHg 44%
    14:00 +10°C° 0 mm 1 mps 589 mmHg 46%
    15:00 +10°C° 0 mm 1 mps 588 mmHg 48%
    16:00 +9°C° 0 mm 1 mps 588 mmHg 50%
    17:00 +7°C° 0 mm 1 mps 587 mmHg 58%
    18:00 +5°C° 0 mm 1 mps 586 mmHg 66%
    19:00 +4°C° 0 mm 1 mps 585 mmHg 74%
    20:00 +3°C° 0 mm 1 mps 585 mmHg 75%
    21:00 +2°C° 0 mm 1 mps 585 mmHg 77%
    22:00 +1°C° 0 mm 0 mps 585 mmHg 79%
    23:00 0°C° 0 mm 0 mps 585 mmHg 79%

    Mañana, 11 Abril, Sábado

    Tiempo Temperatura Precipitaciones Viento Presión Humedad
    00:00 +1°C° 0 mm 1 mps 584 mmHg 80%
    01:00 +1°C° 0 mm 1 mps 584 mmHg 80%
    02:00 0°C° 0 mm 1 mps 584 mmHg 80%
    03:00 0°C° 0 mm 1 mps 584 mmHg 80%
    04:00 0°C° 0 mm 1 mps 584 mmHg 80%
    05:00 +1°C° 0 mm 1 mps 584 mmHg 78%
    06:00 +2°C° 0 mm 1 mps 585 mmHg 75%
    07:00 +3°C° 0 mm 1 mps 585 mmHg 73%
    08:00 +5°C° 0 mm 1 mps 586 mmHg 65%
    09:00 +6°C° 0 mm 1 mps 587 mmHg 58%
    10:00 +8°C° 0 mm 1 mps 588 mmHg 51%
    11:00 +9°C° 0 mm 1 mps 588 mmHg 49%
    12:00 +10°C° 0 mm 1 mps 589 mmHg 47%
    13:00 +11°C° 0 mm 1 mps 589 mmHg 45%
    14:00 +10°C° 0 mm 1 mps 588 mmHg 48%
    15:00 +10°C° 0 mm 1 mps 588 mmHg 50%
    16:00 +10°C° 0 mm 1 mps 587 mmHg 52%
    17:00 +8°C° 0.1 mm 1 mps 586 mmHg 62%
    18:00 +6°C° 0.1 mm 1 mps 586 mmHg 71%
    19:00 +4°C° 0.1 mm 1 mps 585 mmHg 80%
    20:00 +4°C° 0.1 mm 1 mps 585 mmHg 82%
    21:00 +3°C° 0.1 mm 0 mps 585 mmHg 84%
    22:00 +2°C° 0.1 mm 0 mps 585 mmHg 86%
    23:00 +2°C° 0.1 mm 0 mps 585 mmHg 87%

    Pasado mañana, 12 Abril, Domingo

    Tiempo Temperatura Precipitaciones Viento Presión Humedad
    00:00 +2°C° 0.1 mm 0 mps 585 mmHg 88%
    01:00 +2°C° 0.1 mm 0 mps 585 mmHg 89%
    02:00 +1°C° 0 mm 0 mps 584 mmHg 89%
    03:00 +1°C° 0 mm 0 mps 584 mmHg 90%
    04:00 0°C° 0 mm 0 mps 583 mmHg 91%
    05:00 +1°C° 0 mm 0 mps 584 mmHg 89%
    06:00 +1°C° 0 mm 0 mps 584 mmHg 87%
    07:00 +2°C° 0 mm 0 mps 584 mmHg 85%
    08:00 +4°C° 0.1 mm 1 mps 585 mmHg 79%
    09:00 +5°C° 0.1 mm 1 mps 585 mmHg 73%
    10:00 +7°C° 0.1 mm 1 mps 585 mmHg 68%
    11:00 +6°C° 0.2 mm 2 mps 585 mmHg 64%
    12:00 +7°C° 0.2 mm 2 mps 585 mmHg 60%
    13:00 +8°C° 0.2 mm 2 mps 585 mmHg 57%
    14:00 +7°C° 0.3 mm 2 mps 584 mmHg 57%
    15:00 +7°C° 0.3 mm 2 mps 584 mmHg 58%
    16:00 +7°C° 0.3 mm 2 mps 583 mmHg 58%
    17:00 +5°C° 0.2 mm 2 mps 582 mmHg 65%
    18:00 +4°C° 0.2 mm 2 mps 581 mmHg 72%
    19:00 +3°C° 0.2 mm 1 mps 581 mmHg 79%
    20:00 +3°C° 0 mm 1 mps 581 mmHg 81%
    21:00 +2°C° 0 mm 1 mps 581 mmHg 83%
    22:00 +2°C° 0 mm 1 mps 581 mmHg 85%
    23:00 +1°C° 0 mm 1 mps 580 mmHg 86%

    13 Abril, Lunes

    Tiempo Temperatura Precipitaciones Viento Presión Humedad
    00:00 +1°C° 0 mm 1 mps 580 mmHg 87%
    01:00 0°C° 0 mm 1 mps 579 mmHg 88%
    02:00 0°C° 0 mm 1 mps 579 mmHg 88%
    03:00 0°C° 0 mm 1 mps 579 mmHg 88%
    04:00 -2°C° 0 mm 0 mps 579 mmHg 88%
    05:00 -1°C° 0 mm 0 mps 579 mmHg 84%
    06:00 -1°C° 0 mm 0 mps 579 mmHg 80%
    07:00 0°C° 0 mm 0 mps 579 mmHg 76%
    08:00 +2°C° 0 mm 1 mps 580 mmHg 69%
    09:00 +4°C° 0 mm 1 mps 581 mmHg 61%
    10:00 +4°C° 0 mm 2 mps 581 mmHg 54%
    11:00 +5°C° 0 mm 2 mps 581 mmHg 50%
    12:00 +6°C° 0 mm 2 mps 581 mmHg 47%
    13:00 +6°C° 0 mm 2 mps 582 mmHg 43%
    14:00 +6°C° 0 mm 2 mps 581 mmHg 43%
    15:00 +6°C° 0 mm 2 mps 581 mmHg 44%
    16:00 +6°C° 0 mm 2 mps 581 mmHg 44%
    17:00 +4°C° 0.1 mm 2 mps 580 mmHg 52%
    18:00 +4°C° 0.1 mm 1 mps 579 mmHg 60%
    19:00 +2°C° 0.1 mm 1 mps 578 mmHg 69%
    20:00 +1°C° 0.1 mm 1 mps 578 mmHg 72%
    21:00 +1°C° 0.1 mm 1 mps 578 mmHg 74%
    22:00 0°C° 0.1 mm 1 mps 578 mmHg 77%
    23:00 0°C° 0 mm 1 mps 577 mmHg 79%

    14 Abril, Martes

    Tiempo Temperatura Precipitaciones Viento Presión Humedad
    00:00 0°C° 0 mm 1 mps 577 mmHg 80%
    01:00 -1°C° 0 mm 1 mps 577 mmHg 82%
    02:00 -1°C° 0 mm 1 mps 577 mmHg 83%
    03:00 -1°C° 0 mm 1 mps 577 mmHg 84%
    04:00 -1°C° 0 mm 1 mps 576 mmHg 84%
    05:00 0°C° 0 mm 1 mps 577 mmHg 82%
    06:00 0°C° 0 mm 1 mps 577 mmHg 79%
    07:00 +1°C° 0 mm 1 mps 577 mmHg 77%
    08:00 +3°C° 0 mm 1 mps 578 mmHg 70%
    09:00 +4°C° 0 mm 1 mps 579 mmHg 64%
    10:00 +6°C° 0 mm 1 mps 580 mmHg 57%
    11:00 +7°C° 0 mm 1 mps 580 mmHg 55%
    12:00 +8°C° 0 mm 1 mps 580 mmHg 54%
    13:00 +8°C° 0 mm 1 mps 580 mmHg 52%
    14:00 +8°C° 0.1 mm 1 mps 580 mmHg 55%
    15:00 +6°C° 0.1 mm 2 mps 579 mmHg 58%
    16:00 +6°C° 0.1 mm 2 mps 578 mmHg 62%
    17:00 +4°C° 0.2 mm 2 mps 578 mmHg 70%
    18:00 +3°C° 0.2 mm 2 mps 577 mmHg 78%
    19:00 +3°C° 0.2 mm 1 mps 577 mmHg 87%
    20:00 +2°C° 0.3 mm 1 mps 577 mmHg 89%
    21:00 +1°C° 0.3 mm 2 mps 577 mmHg 92%
    22:00 +1°C° 0.3 mm 2 mps 578 mmHg 94%
    23:00 -1°C° 0.2 mm 2 mps 578 mmHg 94%

    15 Abril, Miércoles

    Tiempo Temperatura Precipitaciones Viento Presión Humedad
    00:00 -1°C° 0.2 mm 2 mps 578 mmHg 95%
    01:00 +1°C° 0.2 mm 1 mps 578 mmHg 95%
    02:00 0°C° 0.1 mm 1 mps 577 mmHg 95%
    03:00 0°C° 0.1 mm 1 mps 577 mmHg 95%
    04:00 0°C° 0.1 mm 1 mps 577 mmHg 95%
    05:00 0°C° 0 mm 1 mps 577 mmHg 94%
    06:00 0°C° 0 mm 1 mps 577 mmHg 93%
    07:00 0°C° 0 mm 1 mps 577 mmHg 92%
    08:00 +1°C° 0 mm 1 mps 578 mmHg 87%
    09:00 +3°C° 0 mm 1 mps 579 mmHg 81%
    10:00 +4°C° 0 mm 1 mps 579 mmHg 76%
    11:00 +3°C° 0 mm 2 mps 580 mmHg 74%
    12:00 +4°C° 0 mm 2 mps 580 mmHg 72%
    13:00 +4°C° 0 mm 2 mps 580 mmHg 71%
    14:00 +4°C° 0.1 mm 2 mps 580 mmHg 73%
    15:00 +4°C° 0.1 mm 2 mps 580 mmHg 76%
    16:00 +3°C° 0.1 mm 2 mps 580 mmHg 79%
    17:00 +3°C° 0 mm 2 mps 580 mmHg 84%
    18:00 +2°C° 0 mm 2 mps 579 mmHg 88%
    19:00 +1°C° 0 mm 2 mps 579 mmHg 93%
    20:00 +1°C° 0 mm 2 mps 579 mmHg 93%
    21:00 -1°C° 0 mm 2 mps 580 mmHg 94%
    22:00 +1°C° 0 mm 1 mps 580 mmHg 94%
    23:00 +1°C° 0 mm 1 mps 580 mmHg 94%
    Mostrar más